Regional Weather Roundup
Issued by NWS

Home | Current Version | Previous Version | Graphics & Text | Print | Product List | Glossary Off
Versions: 1 2 3 4 5 6 7 8 9 10 11 12 13 14 15 16 17 18 19 20 21 22 23 24 25 26 27 28 29 30 31 32 33 34 35 36 37 38 39 40 41 42 43 44 45 46 47 48 49 50

000
ASUS43 KTOP 272059
RWRKS

WEATHER ROUNDUP FOR KANSAS
NATIONAL WEATHER SERVICE GOODLAND KS
400 PM CDT THU AUG 27 2015

NOTE:  "FAIR" INDICATES FEW OR NO CLOUDS BELOW 12,000 FEET WITH NO
SIGNIFICANT WEATHER AND/OR OBSTRUCTIONS TO VISIBILITY.

KSZ001>006-013>018-027>032-041>047-272200-
NORTHWEST KANSAS

CITY           SKY/WX    TMP DP  RH WIND       PRES   REMARKS
GOODLAND       FAIR      91  48  22 NW16      29.94F
HAYS           FAIR      99  57  25 S29G35    29.85F HX  97
HILL CITY      FAIR      96  58  27 S17G24    29.83F HX  95
RUSSELL        FAIR      94  66  39 SE37G47   29.85F HX  97
$$

KSZ061>065-074>080-084>089-272200-
SOUTHWEST KANSAS

CITY           SKY/WX    TMP DP  RH WIND       PRES   REMARKS
DODGE CITY     FAIR      94  55  26 S21G28    29.93F
ELKHART          N/A     93  56  28 W9          N/A
GARDEN CITY    FAIR      91  56  30 S16G23    29.93F
GREAT BEND     FAIR      93  66  40 SE31G39   29.89S HX  96
LIBERAL        FAIR      93  57  29 S21G29    29.95F
PRATT          FAIR      86  61  42 S24G32    29.97F
$$

KSZ066>073-081>083-090>101-272200-
SOUTHEAST KANSAS

CITY           SKY/WX    TMP DP  RH WIND       PRES   REMARKS
CHANUTE        FAIR      73  68  84 SE10      30.04F
COFFEYVILLE    FAIR      77  66  68 E8        30.03F
HUTCHINSON     FAIR      88  65  46 SE23G35   29.95F
NEWTON         FAIR      90  61  37 S23G29    30.01F
WICHITA INTL   PTSUNNY   89  63  41 S25       29.97F
WICHITA JABRA  FAIR      87  65  47 S15G24    29.98F
WICHITA MCCONL FAIR      88  62  40 SE25      29.99F
WINFIELD       FAIR      89  63  41 S18G25    30.01F
$$

KSZ007>012-019>026-033>040-048>060-102>105-272200-
NORTHEAST KANSAS

CITY           SKY/WX    TMP DP  RH WIND       PRES   REMARKS
CONCORDIA      FAIR      87  68  52 SE20G30   29.91F
EMPORIA        FAIR      85  61  44 SE14      30.01S
LAWRENCE       FAIR      76  68  76 SE10      30.04F
MANHATTAN      FAIR      91  63  39 S24G30    29.95F
OLATHE IND     CLOUDY    69  67  93 SE14      30.07F
OLATHE EXE     CLOUDY    66  65  96 S6        30.06R
SALINA         FAIR      89  66  46 S25G38    29.92F
TOPEKA BILLARD FAIR      77  68  73 E13       30.03F
TOPEKA FORBES  FAIR      80  67  64 SE13G22   30.03F
$$


USA.gov is the U.S. government's official web portal to all federal, state and local government web resources and services.